Crookston, MN

8:34 PM CDT on August 20, 2017 (GMT -0500)
Crookston Municipal-Kirkwood

Weather History for KCKN - March, 2014

Change the Weather History Date:

Thursday, March 13, 2014

  Actual Average Record
Temperature  
Mean Temperature 30 °F -  
Max Temperature 41 °F 27 °F 60 °F (2012)
Min Temperature 19 °F 11 °F -5 °F (2013)
Degree Days  
Heating Degree Days 35    
Moisture  
Dew Point 28 °F    
Average Humidity 89    
Maximum Humidity 100    
Minimum Humidity 76    
Precipitation  
Precipitation 0.00 in - - ()
Sea Level Pressure  
Sea Level Pressure 29.60 in    
Wind  
Wind Speed 11 mph (SW)    
Max Wind Speed 17 mph    
Max Gust Speed -    
Visibility 9 miles    
Events      
Averages and records for this station are not official NWS values.
T = Trace of Precipitation, MM = Missing Value Source: NWS Daily Summary

Daily Weather History Graph

Daily Weather History Graph

Search for Another Location

Airport or City:

Trip Planner

Search our weather history database for the weather conditions in past years. The results will help you decide how hot, cold, wet, or windy it might be!

Date:

Astronomy

Mar. 13, 2014 Rise Set
Actual Time 7:43 AM CDT 7:29 PM CDT
Civil Twilight 7:12 AM CDT 7:59 PM CDT
Nautical Twilight 6:36 AM CDT 8:35 PM CDT
Astronomical Twilight 6:00 AM CDT 9:12 PM CDT
Moon 4:47 PM CDT (3/13) 6:01 AM CDT (3/13)
Length of Visible Light 12h 47m
Length of Day
11h 45m
Waxing Gibbous, 91% of the Moon is Illuminated
Mar 13
Waxing Gibbous
Mar 16
Full
Mar 23
Last Quarter
Mar 30
New
Apr 7
First Quarter

Hourly Weather History & Observations

Time (CDT) Temp. Windchill Dew Point Humidity Pressure Visibility Wind Dir Wind Speed Gust Speed Precip Events Conditions
12:15 AM 26.6 °F 13.8 °F 24.8 °F 93% 29.81 in 7.0 mi SSW 17.3 mph - N/A   Clear
12:34 AM 26.6 °F 14.7 °F 24.8 °F 93% 29.81 in 7.0 mi SSW 15.0 mph - N/A   Clear
12:55 AM 26.6 °F 15.2 °F 24.8 °F 93% 29.80 in 5.0 mi SSW 13.8 mph - N/A   Clear
1:15 AM 26.6 °F 15.7 °F 24.8 °F 93% 29.79 in 5.0 mi SSW 12.7 mph - N/A   Clear
1:34 AM 24.8 °F 12.9 °F 24.8 °F 100% 29.79 in 5.0 mi SSW 13.8 mph - N/A   Clear
1:55 AM 24.8 °F 14.6 °F 24.8 °F 100% 29.79 in 5.0 mi SSW 10.4 mph - N/A   Clear
2:14 AM 24.8 °F 16.1 °F 23.0 °F 93% 29.78 in 5.0 mi SSW 8.1 mph - N/A   Clear
2:34 AM 24.8 °F 16.1 °F 23.0 °F 93% 29.77 in 5.0 mi SSW 8.1 mph - N/A   Clear
2:55 AM 24.8 °F 16.1 °F 23.0 °F 93% 29.76 in 5.0 mi South 8.1 mph - N/A   Clear
3:14 AM 23.0 °F 13.1 °F 21.2 °F 93% 29.75 in 5.0 mi South 9.2 mph - N/A   Clear
3:35 AM 23.0 °F 13.9 °F 21.2 °F 93% 29.75 in 5.0 mi South 8.1 mph - N/A   Clear
3:54 AM 23.0 °F 13.1 °F 21.2 °F 93% 29.74 in 5.0 mi SSW 9.2 mph - N/A   Clear
4:14 AM 21.2 °F 10.9 °F 21.2 °F 100% 29.74 in 7.0 mi SSW 9.2 mph - N/A   Clear
4:35 AM 21.2 °F 10.9 °F 21.2 °F 100% 29.73 in 7.0 mi SSW 9.2 mph - N/A   Clear
4:54 AM 21.2 °F 14.9 °F 21.2 °F 100% 29.73 in 7.0 mi South 4.6 mph - N/A   Clear
5:14 AM 21.2 °F 11.7 °F 21.2 °F 100% 29.72 in 7.0 mi SSW 8.1 mph - N/A   Clear
5:35 AM 21.2 °F 12.6 °F 21.2 °F 100% 29.72 in 7.0 mi SSW 6.9 mph - N/A   Clear
5:54 AM 21.2 °F 12.6 °F 21.2 °F 100% 29.71 in 7.0 mi South 6.9 mph - N/A   Clear
6:14 AM 21.2 °F 11.7 °F 21.2 °F 100% 29.70 in 7.0 mi South 8.1 mph - N/A   Clear
6:35 AM 21.2 °F 12.6 °F 19.4 °F 93% 29.69 in 7.0 mi SSE 6.9 mph - N/A   Clear
6:54 AM 19.4 °F 9.5 °F 17.6 °F 93% 29.68 in 7.0 mi SSE 8.1 mph - N/A   Clear
7:14 AM 19.4 °F 9.5 °F 17.6 °F 93% 29.68 in 7.0 mi SSE 8.1 mph - N/A   Clear
7:35 AM 19.4 °F 10.4 °F 17.6 °F 93% 29.68 in 10.0 mi South 6.9 mph - N/A   Clear
7:54 AM 21.2 °F 11.7 °F 21.2 °F 100% 29.68 in 10.0 mi South 8.1 mph - N/A   Clear
8:15 AM 23.0 °F 11.7 °F 21.2 °F 93% 29.66 in 10.0 mi South 11.5 mph - N/A   Clear
8:35 AM 23.0 °F 11.7 °F 21.2 °F 93% 29.65 in 10.0 mi South 11.5 mph - N/A   Clear
8:54 AM 24.8 °F 14.6 °F 23.0 °F 93% 29.64 in 10.0 mi South 10.4 mph - N/A   Clear
9:15 AM 26.6 °F 18.2 °F 24.8 °F 93% 29.63 in 10.0 mi South 8.1 mph - N/A   Clear
9:35 AM 28.4 °F 18.5 °F 26.6 °F 93% 29.62 in 10.0 mi South 11.5 mph - N/A   Clear
9:54 AM 30.2 °F 20.8 °F 26.6 °F 86% 29.61 in 10.0 mi SSW 11.5 mph - N/A   Clear
10:15 AM 30.2 °F 20.2 °F 28.4 °F 93% 29.61 in 10.0 mi SSW 12.7 mph - N/A   Clear
10:34 AM 32.0 °F 24.2 °F 28.4 °F 87% 29.60 in 10.0 mi SSW 9.2 mph - N/A   Clear
10:54 AM 33.8 °F 26.4 °F 28.4 °F 81% 29.60 in 10.0 mi SSW 9.2 mph - N/A   Clear
11:14 AM 33.8 °F 26.4 °F 30.2 °F 87% 29.59 in 10.0 mi SSW 9.2 mph - N/A   Clear
11:34 AM 35.6 °F 28.0 °F 30.2 °F 81% 29.58 in 10.0 mi SSW 10.4 mph - N/A   Clear
11:55 AM 35.6 °F 28.0 °F 30.2 °F 81% 29.58 in 10.0 mi SSW 10.4 mph - N/A   Clear
12:14 PM 37.4 °F 30.8 °F 32.0 °F 81% 29.57 in 10.0 mi South 9.2 mph - N/A   Clear
12:35 PM 37.4 °F 30.8 °F 32.0 °F 81% 29.56 in 10.0 mi South 9.2 mph - N/A   Clear
12:54 PM 37.4 °F 30.8 °F 33.8 °F 87% 29.55 in 10.0 mi SSW 9.2 mph - N/A   Clear
1:14 PM 37.4 °F 30.8 °F 33.8 °F 87% 29.54 in 10.0 mi South 9.2 mph - N/A   Clear
1:35 PM 39.2 °F 32.5 °F 33.8 °F 81% 29.53 in 10.0 mi South 10.4 mph - N/A   Clear
1:54 PM 39.2 °F 31.6 °F 33.8 °F 81% 29.51 in 10.0 mi South 12.7 mph - N/A   Clear
2:14 PM 39.2 °F 31.6 °F 33.8 °F 81% 29.51 in 10.0 mi SSW 12.7 mph - N/A   Clear
2:35 PM 39.2 °F 32.0 °F 33.8 °F 81% 29.51 in 10.0 mi SSW 11.5 mph - N/A   Clear
2:54 PM 39.2 °F 32.0 °F 33.8 °F 81% 29.49 in 10.0 mi South 11.5 mph - N/A   Clear
3:15 PM 39.2 °F 34.2 °F 33.8 °F 81% 29.48 in 10.0 mi SSW 6.9 mph - N/A   Clear
3:35 PM 39.2 °F 32.0 °F 33.8 °F 81% 29.47 in 10.0 mi SSW 11.5 mph - N/A   Clear
3:54 PM 39.2 °F 33.0 °F 35.6 °F 87% 29.47 in 10.0 mi SSW 9.2 mph - N/A   Clear
4:15 PM 39.2 °F 33.6 °F 35.6 °F 87% 29.47 in 10.0 mi SSW 8.1 mph - N/A   Clear
4:34 PM 39.2 °F 35.0 °F 35.6 °F 87% 29.47 in 10.0 mi SW 5.8 mph - N/A   Clear
4:54 PM 39.2 °F 35.9 °F 35.6 °F 87% 29.47 in 10.0 mi WSW 4.6 mph - N/A   Clear
5:15 PM 41.0 °F 35.2 °F 35.6 °F 81% 29.47 in 10.0 mi West 9.2 mph - N/A   Clear
5:34 PM 39.2 °F 33.0 °F 33.8 °F 81% 29.46 in 10.0 mi West 9.2 mph - N/A   Clear
5:54 PM 41.0 °F 36.4 °F 33.8 °F 76% 29.46 in 10.0 mi West 6.9 mph - N/A   Clear
6:14 PM 39.2 °F 34.2 °F 33.8 °F 81% 29.47 in 10.0 mi West 6.9 mph - N/A   Clear
6:34 PM 39.2 °F 35.0 °F 33.8 °F 81% 29.47 in 10.0 mi WNW 5.8 mph - N/A   Clear
6:55 PM 39.2 °F 33.0 °F 33.8 °F 81% 29.47 in 10.0 mi WNW 9.2 mph - N/A   Clear
7:14 PM 39.2 °F 31.6 °F 33.8 °F 81% 29.48 in 10.0 mi WNW 12.7 mph - N/A   Clear
7:35 PM 37.4 °F 28.9 °F 33.8 °F 87% 29.48 in 10.0 mi WNW 13.8 mph - N/A   Clear
7:54 PM 37.4 °F 28.5 °F 33.8 °F 87% 29.48 in 10.0 mi WNW 15.0 mph - N/A   Clear
8:14 PM 37.4 °F 29.3 °F 33.8 °F 87% 29.49 in 10.0 mi WNW 12.7 mph - N/A   Clear
8:35 PM 37.4 °F 28.9 °F 33.8 °F 87% 29.49 in 10.0 mi WNW 13.8 mph - N/A   Clear
8:54 PM 35.6 °F 27.5 °F 33.8 °F 93% 29.50 in 10.0 mi WNW 11.5 mph - N/A   Clear
9:15 PM 35.6 °F 27.5 °F 33.8 °F 93% 29.50 in 10.0 mi WNW 11.5 mph - N/A   Clear
9:34 PM 35.6 °F 27.1 °F 32.0 °F 87% 29.50 in 10.0 mi WNW 12.7 mph - N/A   Clear
9:54 PM 35.6 °F 27.5 °F 32.0 °F 87% 29.51 in 10.0 mi WNW 11.5 mph - N/A   Clear
10:15 PM 35.6 °F 28.6 °F 32.0 °F 87% 29.51 in 10.0 mi WNW 9.2 mph - N/A   Clear
10:34 PM 33.8 °F 27.0 °F 30.2 °F 87% 29.51 in 10.0 mi West 8.1 mph - N/A   Clear
10:55 PM 33.8 °F 27.0 °F 30.2 °F 87% 29.52 in 10.0 mi West 8.1 mph - N/A   Clear
11:15 PM 35.6 °F 26.6 °F 30.2 °F 81% 29.52 in 10.0 mi WNW 13.8 mph - N/A   Clear
11:34 PM 35.6 °F 25.9 °F 30.2 °F 81% 29.52 in 10.0 mi WNW 16.1 mph - N/A   Clear
11:55 PM 33.8 °F 24.8 °F 30.2 °F 87% 29.52 in 10.0 mi WNW 12.7 mph - N/A   Clear